TimeEDT,TemperatureF,Dew PointF,Humidity,Sea Level PressureIn,VisibilityMPH,Wind Direction,Wind SpeedMPH,Gust SpeedMPH,PrecipitationIn,Events,Conditions,WindDirDegrees,DateUTC
12:52 AM,64.9,59.0,81,29.68,10.0,East,8.1,17.3,N/A,,Scattered Clouds,90,2012-10-20 04:52:00
1:52 AM,66.9,57.0,70,29.66,10.0,South,8.1,16.1,N/A,,Partly Cloudy,180,2012-10-20 05:52:00
2:52 AM,66.0,55.0,68,29.65,10.0,South,10.4,18.4,N/A,,Clear,170,2012-10-20 06:52:00
3:52 AM,62.1,55.0,78,29.66,10.0,Variable,4.6,-,N/A,,Partly Cloudy,0,2012-10-20 07:52:00
4:52 AM,57.9,57.0,97,29.68,8.0,East,5.8,-,N/A,,Clear,100,2012-10-20 08:52:00
5:52 AM,57.0,55.9,96,29.68,6.0,East,4.6,-,N/A,,Partly Cloudy,90,2012-10-20 09:52:00
6:52 AM,53.1,51.1,93,29.68,4.0,Calm,Calm,-,N/A,,Clear,0,2012-10-20 10:52:00
7:11 AM,51.8,50.0,94,29.67,4.0,Calm,Calm,-,N/A,,Partly Cloudy,0,2012-10-20 11:11:00
7:21 AM,51.8,50.0,94,29.68,1.5,Calm,Calm,-,N/A,,Partly Cloudy,0,2012-10-20 11:21:00
7:23 AM,50.0,48.2,94,29.68,1.0,Calm,Calm,-,N/A,,Mist,0,2012-10-20 11:23:00
7:28 AM,50.0,48.2,94,29.68,0.8,Calm,Calm,-,N/A,,Mist,0,2012-10-20 11:28:00
7:38 AM,51.8,50.0,94,29.67,0.2,Calm,Calm,-,N/A,Fog,Fog,0,2012-10-20 11:38:00
7:52 AM,50.0,48.9,96,29.68,0.2,Calm,Calm,-,N/A,Fog,Fog,0,2012-10-20 11:52:00
8:31 AM,53.6,53.6,100,29.68,0.5,Calm,Calm,-,N/A,Fog,Fog,0,2012-10-20 12:31:00
8:42 AM,53.6,53.6,100,29.68,0.2,Calm,Calm,-,N/A,Fog,Fog,0,2012-10-20 12:42:00
8:52 AM,55.0,54.0,96,29.68,0.2,Calm,Calm,-,N/A,Fog,Fog,0,2012-10-20 12:52:00
9:02 AM,55.4,55.4,100,29.68,1.2,Calm,Calm,-,N/A,,Mostly Cloudy,0,2012-10-20 13:02:00
9:04 AM,55.4,55.4,100,29.68,2.5,Calm,Calm,-,N/A,,Mostly Cloudy,0,2012-10-20 13:04:00
9:11 AM,55.4,55.4,100,29.69,4.0,Calm,Calm,-,N/A,,Scattered Clouds,0,2012-10-20 13:11:00
9:52 AM,60.1,57.0,90,29.67,10.0,ESE,3.5,-,N/A,,Clear,110,2012-10-20 13:52:00
10:52 AM,64.9,52.0,63,29.68,10.0,SW,4.6,-,N/A,,Clear,220,2012-10-20 14:52:00
11:52 AM,68.0,48.0,49,29.66,10.0,Variable,3.5,-,N/A,,Clear,0,2012-10-20 15:52:00
12:52 PM,70.0,45.0,41,29.62,10.0,West,6.9,-,N/A,,Clear,260,2012-10-20 16:52:00
2:52 PM,69.1,41.0,36,29.60,10.0,Variable,5.8,-,N/A,,Mostly Cloudy,0,2012-10-20 18:52:00
3:52 PM,70.0,39.0,32,29.61,10.0,West,13.8,23.0,N/A,,Scattered Clouds,260,2012-10-20 19:52:00
6:39 PM,55.4,44.6,67,29.71,10.0,Variable,3.5,-,N/A,,Mostly Cloudy,0,2012-10-20 22:39:00
6:52 PM,55.9,44.1,64,29.71,10.0,WNW,3.5,-,N/A,,Overcast,290,2012-10-20 22:52:00
7:52 PM,54.0,43.0,66,29.73,10.0,West,3.5,-,N/A,,Overcast,270,2012-10-20 23:52:00
9:52 PM,52.0,37.0,57,29.75,10.0,West,8.1,-,N/A,,Mostly Cloudy,280,2012-10-21 01:52:00
10:52 PM,51.1,36.0,56,29.76,10.0,WNW,4.6,-,N/A,,Clear,290,2012-10-21 02:52:00